AirNav   Pilot Hours Calculator
 
 986 users online  

MU66 Winfield Manor Heliport
Winfield, Missouri, USA

GOING TO WINFIELD?


FAA INFORMATION EFFECTIVE 31 DECEMBER 2020

Location

FAA Identifier: MU66
Lat/Long: 39-01-47.4300N 090-49-23.7500W
39-01.790500N 090-49.395833W
39.0298417,-90.8232639
(estimated)
Elevation: 732 ft. / 223 m (estimated)
Variation: 01E (2000)
From city: 3 miles SE of WINFIELD, MO
Time zone: UTC -6 (UTC -5 during Daylight Saving Time)
Zip code: 63389

Heliport Operations

Heliport use: Private use. Permission required prior to landing
Activation date: 10/1986
Control tower: no
ARTCC: KANSAS CITY CENTER
FSS: SAINT LOUIS FLIGHT SERVICE STATION
NOTAMs facility: FDC (NOTAM-D service not available)
Attendance: UNATNDD
Wind indicator: yes
Segmented circle: no
Lights: FOR FLOOD LGTS CALL 314-553-2225.
Beacon: white-green-yellow (heliport)
FOR ROTG BCN CALL 314-731-4517.

Heliport Communications

WX ASOS at SET (19 nm E): 118.075 (636-250-4590)

Nearby radio navigation aids

VOR radial/distance  VOR name  Freq  Var
STLr302/18.9ST LOUIS VORTAC117.4001E
FTZr014/21.3FORISTELL VORTAC110.8005E

 
NDB name  Hdg/Dist  Freq  Var  ID
CIVIC MEMORIAL284/36.726301WCVM -.-. ...- --

Heliport Services

Runway Information

Helipad H1

Dimensions: 50 x 50 ft. / 15 x 15 m
Surface: concrete
Runway edge lights: FLD
Latitude: 39-01.790500N
Longitude: 090-49.395833W
Elevation: 732.0 ft.
Traffic pattern: leftleft

Heliport Ownership and Management from official FAA records

Ownership: Privately-owned
Owner: EMERSON ELECTRIC CO.
8000 W. FLORISSANT
ST LOUIS, MO 63136
Phone (314) 553-2225
Manager: MOLLY LINDSAY
RR 1, BOX 128
WINFIELD, MO 63389
Phone (314) 553-3900

Additional Remarks

A52-H1 TREES 80' WEST AND WIRES 400' NORTH.
FOR CD CTC ST LOUIS APCH AT 314-890-1018.

Instrument Procedures

There are no published instrument procedures at MU66.

Some nearby airports with instrument procedures:

KSET - St Charles County Smartt Airport (19 nm E)
1H0 - Creve Coeur Airport (23 nm SE)
KSUS - Spirit of St Louis Airport (23 nm S)
KSTL - St Louis Lambert International Airport (27 nm SE)
H19 - Bowling Green Municipal Airport (27 nm NW)
 
Loc | Ops | Rwys | IFR | FBO | Links
Com | Nav | Svcs | Stats | Notes
Area around MU66 (Winfield Manor Heliport)
 
Road maps at: MapQuest Bing Google
 
Aerial photo
No photo
 
Sectional chart

 
Airport distance calculator
Flying to Winfield Manor Heliport? Find the distance to fly.

From to MU66

Sunrise and sunset
Times for 24-Jan-2021
 Local
(UTC-6)
 Zulu
(UTC)
Morning civil twilight06:4812:48
Sunrise07:1713:17
Sunset17:1423:14
Evening civil twilight17:4323:43

Current date and time
Zulu (UTC)  25-Jan-2021 01:08:47
Local (UTC-6)  24-Jan-2021 19:08:47
 
METAR
KSET 
19nm E 
250054Z AUTO 05003KT 10SM SCT060 03/M02 A3005 RMK AO2 SLP178 T00331017 $
KSUS 
24nm S 
250054Z 08003KT 10SM OVC031 04/M01 A3005 RMK AO2 SLP181 T00441006
KSTL 
27nm SE 
250051Z 09004KT 10SM OVC055 04/M01 A3006 RMK AO2 SLP187 T00391006 $
KFYG 
28nm S 
250035Z AUTO 05003KT 10SM SCT029 BKN050 04/00 A3003 RMK AO2
KPPQ 
36nm N 
250055Z AUTO 04004KT 10SM OVC034 04/M01 A3006 RMK AO2 T00351013
KALN 
38nm E 
250045Z 06004KT 10SM BKN060 03/01 A3006
TAF
KSUS 
24nm S 
242051Z 2421/2518 VRB03KT P6SM OVC035 FM250300 VRB03KT P6SM OVC006 FM250800 08005KT 2SM RA BR OVC005 FM251500 08010G20KT 3SM RA BR OVC006
KSTL 
27nm SE 
242056Z 2421/2524 VRB03KT P6SM OVC035 FM250300 08006KT P6SM OVC006 FM250800 08005KT 2SM RA BR OVC005 FM251500 08010G20KT 3SM RA BR OVC006
NOTAMs
Click for the latest NOTAMs
NOTAMs are issued by the DoD/FAA and will open in a separate window not controlled by AirNav.

 

 
 

Would you like to see your business listed on this page?

 If your business provides an interesting product or service to pilots, flight crews, aircraft, or users of the Winfield Manor Heliport, you should consider listing it here.  To start the listing process, click on the button below
 
Add a business
 

Other Pages about Winfield Manor Heliport

Update a link
 
Copyright © AirNav, LLC. All rights reserved. Privacy Policy  Contact